Location: Litvinovka
(48.6667°N, 34.3500°E)
Time: 07:22:10
(UTC+00:00)

Cosmos 1072 Rocket - Pass Details

Date: 18 September 2020
Orbit: 949 x 1008 km, 82.9° (Epoch: 21 October)

Event Time Altitude Azimuth Distance (km) Brightness Sun altitude
Rises 17:03:14 0° 180° (S) 3,646 7.3 -13.0°
Reaches altitude 10° 17:05:42 10° 179° (S) 2,712 6.6 -13.4°
Maximum altitude 17:11:54 75° 95° (E) 1,023 4.4 -14.3°
Drops below altitude 10° 17:18:14 10° 12° (NNE) 2,771 7.0 -15.3°
Sets 17:20:48 0° 11° (N) 3,731 7.7 -15.7°
